Total_Precipitation_Accumulation
1.98 2.10 2.25 2.33 2.23 1.99 1.90 1.86 1.82 1.64 1.43 1.32 1.18 1.01 1.11 1.21 1.41 1.24 1.12 1.07 0.84 0.65 0.59 0.61 0.66 0.70 0.79 0.86 1.02 1.23 1.46 1.58 1.63 1.54 1.35 1.25 1.20 1.12
1.80 1.93 1.94 2.00 2.17 2.13 1.95 1.91 1.81 1.68 1.54 1.37 1.28 1.14 1.30 1.21 1.35 1.18 1.21 1.28 0.95 0.73 0.63 0.62 0.60 0.56 0.54 0.55 0.54 0.59 0.68 0.79 0.98 1.10 1.10 1.03 1.04 1.05
1.40 1.53 1.68 1.93 2.21 2.23 2.18 2.06 1.92 1.76 1.52 1.39 1.18 1.11 1.40 1.49 1.40 1.26 1.24 1.22 1.00 0.86 0.71 0.65 0.63 0.58 0.54 0.49 0.47 0.45 0.46 0.51 0.56 0.65 0.74 0.77 0.83 0.87
1.15 1.27 1.44 1.74 2.07 2.29 2.37 2.27 2.12 1.96 1.80 1.65 1.32 1.08 1.20 1.53 1.67 1.60 1.37 1.20 1.09 1.02 0.88 0.76 0.70 0.64 0.58 0.56 0.54 0.50 0.46 0.46 0.47 0.49 0.54 0.64 0.76 0.81
1.16 1.21 1.27 1.47 1.66 1.87 2.06 2.18 2.17 2.14 2.09 1.85 1.55 1.29 1.22 1.36 1.61 1.64 1.55 1.50 1.29 1.22 1.21 1.08 0.95 0.84 0.74 0.64 0.62 0.58 0.51 0.48 0.47 0.49 0.51 0.56 0.63 0.71
0.96 1.05 1.15 1.20 1.35 1.50 1.60 1.79 2.00 2.23 2.29 2.14 1.88 1.56 1.44 1.33 1.44 1.60 1.67 1.62 1.53 1.34 1.30 1.20 1.18 1.12 1.00 0.84 0.70 0.63 0.61 0.62 0.60 0.58 0.58 0.59 0.57 0.58
0.88 0.88 0.95 0.97 1.03 1.22 1.26 1.48 1.80 2.06 2.17 2.23 2.11 1.81 1.55 1.37 1.17 1.28 1.54 1.75 1.75 1.65 1.65 1.42 1.29 1.16 1.07 1.03 0.95 0.83 0.73 0.68 0.66 0.66 0.69 0.70 0.71 0.68
0.87 0.87 0.89 0.83 0.81 0.88 1.01 1.14 1.43 1.64 1.77 1.84 1.87 1.72 1.51 1.37 1.33 1.30 1.37 1.51 1.56 1.44 1.47 1.55 1.50 1.36 1.26 1.14 1.15 1.19 1.10 0.99 0.89 0.86 0.84 0.82 0.85 0.87
0.90 0.92 0.89 0.84 0.88 0.89 0.91 0.92 0.99 1.17 1.38 1.57 1.60 1.50 1.56 1.47 1.39 1.29 1.31 1.33 1.31 1.41 1.46 1.52 1.51 1.42 1.35 1.34 1.37 1.27 1.21 1.12 1.04 0.99 0.97 0.93 0.87 0.84
0.87 0.83 0.89 0.91 0.94 1.00 0.93 1.00 0.95 0.94 1.02 1.07 1.21 1.41 1.55 1.72 1.69 1.58 1.59 1.53 1.44 1.53 1.54 1.49 1.39 1.32 1.23 1.21 1.27 1.15 1.07 1.03 1.01 0.98 0.94 0.90 0.85 0.82
0.86 0.85 0.93 0.97 1.10 1.15 1.06 1.11 1.07 1.03 1.00 1.11 1.20 1.30 1.38 1.50 1.65 1.69 1.65 1.61 1.48 1.41 1.42 1.36 1.26 1.28 1.27 1.15 1.08 1.08 0.98 0.93 0.91 0.90 0.88 0.86 0.86 0.92
0.99 0.99 1.17 1.12 1.10 1.05 1.03 1.17 1.14 0.99 0.92 0.96 1.01 1.09 1.12 1.22 1.35 1.39 1.52 1.58 1.50 1.36 1.19 1.17 1.18 1.21 1.26 1.15 1.04 0.97 0.92 0.93 0.90 0.86 0.84 0.85 0.93 0.94
1.09 1.05 0.98 1.11 1.06 0.98 0.98 1.03 1.17 1.05 0.98 1.01 1.01 1.01 1.04 1.07 1.11 1.17 1.28 1.41 1.46 1.31 1.15 1.19 1.18 1.17 1.08 0.95 0.94 0.91 0.88 0.86 0.86 0.86 0.90 0.92 0.96 0.95
1.07 0.97 0.87 1.10 1.06 0.97 0.89 0.91 1.05 1.12 1.11 1.14 1.13 1.05 0.97 0.93 0.93 0.99 1.07 1.19 1.28 1.27 1.24 1.23 1.19 1.15 1.10 0.98 0.87 0.85 0.87 0.89 0.88 0.84 0.82 0.97 1.03 1.08
0.93 0.94 0.95 0.99 0.91 0.87 0.96 0.99 1.01 1.03 1.11 1.17 1.07 0.92 0.85 0.83 0.89 0.99 1.10 1.20 1.27 1.24 1.18 1.18 1.19 1.23 1.23 1.09 0.96 0.89 0.90 0.88 0.86 0.83 0.80 0.81 0.86 0.98
0.73 0.77 0.81 0.78 0.78 0.82 0.88 0.97 1.03 1.07 1.09 1.03 0.93 0.80 0.80 0.85 0.86 0.89 1.01 1.15 1.29 1.28 1.25 1.30 1.32 1.33 1.34 1.20 1.09 1.02 0.99 0.95 0.91 0.91 0.89 0.84 0.80 0.81
0.80 0.74 0.75 0.75 0.75 0.74 0.79 0.83 0.88 0.88 0.91 0.89 0.86 0.85 0.84 0.85 0.85 0.83 0.91 0.97 0.99 0.99 1.03 1.14 1.32 1.45 1.44 1.40 1.33 1.16 1.11 1.09 1.10 1.13 1.10 1.00 0.84 0.76
1.07 1.08 1.07 1.01 0.93 0.82 0.75 0.69 0.68 0.71 0.74 0.80 0.82 0.80 0.80 0.82 0.87 0.89 0.92 0.96 0.95 0.87 0.84 0.90 1.11 1.39 1.53 1.47 1.32 1.21 1.18 1.11 1.11 1.24 1.25 1.13 0.92 0.80
1.12 1.13 1.12 0.97 0.83 0.76 0.67 0.57 0.53 0.56 0.63 0.65 0.68 0.72 0.72 0.74 0.80 0.84 0.85 0.90 0.92 0.88 0.85 0.87 0.98 1.13 1.27 1.21 1.06 0.99 1.05 1.10 1.17 1.25 1.27 1.15 0.95 0.84
0.83 0.83 0.76 0.68 0.61 0.53 0.50 0.47 0.43 0.48 0.57 0.59 0.60 0.60 0.61 0.65 0.68 0.76 0.79 0.81 0.84 0.84 0.83 0.81 0.81 0.87 0.96 0.94 0.88 0.82 0.85 0.97 1.04 1.06 1.07 1.10 1.05 1.08
0.52 0.47 0.40 0.37 0.38 0.36 0.36 0.37 0.37 0.41 0.48 0.56 0.57 0.55 0.53 0.56 0.60 0.65 0.72 0.80 0.81 0.81 0.81 0.75 0.71 0.81 0.89 0.98 0.95 0.75 0.70 0.84 0.94 0.96 1.01 1.11 1.11 1.03
0.29 0.28 0.26 0.25 0.28 0.28 0.30 0.31 0.32 0.37 0.42 0.48 0.51 0.54 0.53 0.51 0.53 0.58 0.63 0.66 0.68 0.68 0.69 0.71 0.76 0.83 0.87 0.91 0.87 0.75 0.69 0.73 0.92 1.11 1.07 1.04 0.97 0.86
0.24 0.25 0.24 0.25 0.27 0.28 0.31 0.34 0.38 0.40 0.42 0.48 0.49 0.51 0.54 0.55 0.54 0.56 0.60 0.60 0.63 0.64 0.66 0.70 0.74 0.81 0.83 0.84 0.86 0.86 0.85 0.81 0.84 0.95 1.00 1.09 0.96 0.75